TimeEDT,TemperatureF,Dew PointF,Humidity,Sea Level PressureIn,VisibilityMPH,Wind Direction,Wind SpeedMPH,Gust SpeedMPH,PrecipitationIn,Events,Conditions,WindDirDegrees,DateUTC
12:02 AM,61.2,59.0,93,30.15,10.0,Calm,Calm,-,N/A,,Clear,0,2013-09-16 04:02:00
12:22 AM,61.0,59.0,93,30.15,10.0,Calm,Calm,-,N/A,,Scattered Clouds,0,2013-09-16 04:22:00
12:42 AM,61.7,59.7,93,30.15,10.0,Calm,Calm,-,N/A,,Mostly Cloudy,0,2013-09-16 04:42:00
1:02 AM,62.1,60.1,93,30.14,10.0,Calm,Calm,-,N/A,,Overcast,0,2013-09-16 05:02:00
1:22 AM,62.6,60.8,94,30.14,10.0,Calm,Calm,-,N/A,,Overcast,0,2013-09-16 05:22:00
1:42 AM,63.1,61.3,94,30.14,10.0,Calm,Calm,-,N/A,,Mostly Cloudy,0,2013-09-16 05:42:00
2:02 AM,63.1,61.7,95,30.13,10.0,Calm,Calm,-,N/A,,Mostly Cloudy,0,2013-09-16 06:02:00
2:22 AM,63.0,62.1,97,30.13,10.0,Calm,Calm,-,N/A,,Mostly Cloudy,0,2013-09-16 06:22:00
2:42 AM,63.5,63.5,100,30.12,10.0,Calm,Calm,-,N/A,,Mostly Cloudy,0,2013-09-16 06:42:00
3:02 AM,62.6,62.6,100,30.12,10.0,Calm,Calm,-,N/A,,Mostly Cloudy,0,2013-09-16 07:02:00
3:22 AM,62.8,62.8,100,30.11,10.0,Calm,Calm,-,N/A,,Mostly Cloudy,0,2013-09-16 07:22:00
3:42 AM,64.6,64.6,100,30.11,10.0,SSW,4.6,-,N/A,,Mostly Cloudy,200,2013-09-16 07:42:00
4:02 AM,64.6,64.6,100,30.11,10.0,SSW,3.5,-,N/A,,Mostly Cloudy,200,2013-09-16 08:02:00
4:22 AM,64.2,63.1,96,30.10,10.0,SW,3.5,-,N/A,,Mostly Cloudy,220,2013-09-16 08:22:00
4:42 AM,64.0,62.6,95,30.10,10.0,Calm,Calm,-,N/A,,Scattered Clouds,0,2013-09-16 08:42:00
5:02 AM,64.4,62.6,94,30.10,10.0,Calm,Calm,-,N/A,,Scattered Clouds,0,2013-09-16 09:02:00
5:22 AM,64.6,62.2,92,30.09,10.0,Calm,Calm,-,N/A,,Scattered Clouds,0,2013-09-16 09:22:00
5:42 AM,64.9,62.4,92,30.09,10.0,WSW,4.6,-,N/A,,Scattered Clouds,240,2013-09-16 09:42:00
5:45 AM,66.2,62.6,88,30.09,10.0,SW,3.5,-,N/A,,Scattered Clouds,230,2013-09-16 09:45:00
6:02 AM,66.6,63.0,88,30.09,10.0,WSW,3.5,-,N/A,,Mostly Cloudy,240,2013-09-16 10:02:00
6:22 AM,66.2,62.8,89,30.09,10.0,WSW,3.5,-,N/A,,Scattered Clouds,240,2013-09-16 10:22:00
6:42 AM,66.4,63.0,89,30.09,10.0,WSW,4.6,-,N/A,,Scattered Clouds,250,2013-09-16 10:42:00
6:45 AM,66.2,62.6,88,30.09,10.0,SW,4.6,-,N/A,,Mostly Cloudy,230,2013-09-16 10:45:00
7:02 AM,66.9,63.1,88,30.09,10.0,WSW,4.6,-,N/A,,Scattered Clouds,250,2013-09-16 11:02:00
7:22 AM,66.7,63.1,88,30.10,10.0,Calm,Calm,-,N/A,,Scattered Clouds,0,2013-09-16 11:22:00
7:42 AM,68.7,63.9,84,30.10,10.0,WSW,4.6,-,N/A,,Clear,250,2013-09-16 11:42:00
7:45 AM,69.8,64.4,83,30.10,10.0,SW,3.5,-,N/A,,Scattered Clouds,230,2013-09-16 11:45:00
8:50 AM,73.4,64.4,73,30.11,10.0,West,6.9,-,N/A,,Mostly Cloudy,270,2013-09-16 12:50:00
9:53 AM,71.6,62.6,73,30.12,10.0,NNW,5.8,-,N/A,,Mostly Cloudy,340,2013-09-16 13:53:00
10:55 AM,68.0,62.6,83,30.13,10.0,North,6.9,-,N/A,Rain,Light Rain,350,2013-09-16 14:55:00
11:47 AM,66.2,59.0,78,30.15,10.0,NNE,8.1,18.4,N/A,,Light Drizzle,20,2013-09-16 15:47:00
12:03 PM,66.2,61.2,84,30.15,10.0,North,6.9,-,N/A,Rain,Light Rain,10,2013-09-16 16:03:00
12:17 PM,65.5,61.9,88,30.15,10.0,NNE,8.1,-,N/A,Rain,Light Rain,20,2013-09-16 16:17:00
12:45 PM,66.2,59.0,78,30.15,10.0,NNE,9.2,-,N/A,,Overcast,30,2013-09-16 16:45:00
1:55 PM,66.2,59.0,78,30.14,10.0,NE,8.1,-,N/A,,Overcast,40,2013-09-16 17:55:00
2:50 PM,68.0,60.8,78,30.14,10.0,North,8.1,-,N/A,,Overcast,10,2013-09-16 18:50:00
3:53 PM,69.8,59.0,68,30.13,10.0,North,5.8,-,N/A,,Mostly Cloudy,350,2013-09-16 19:53:00
5:53 PM,71.6,55.4,57,30.15,10.0,North,5.8,-,N/A,,Mostly Cloudy,10,2013-09-16 21:53:00
6:53 PM,66.2,55.4,68,30.16,10.0,Calm,Calm,-,N/A,,Scattered Clouds,0,2013-09-16 22:53:00
8:53 PM,62.6,55.4,77,30.21,10.0,Calm,Calm,-,N/A,,Clear,0,2013-09-17 00:53:00
10:04 PM,59.5,54.7,84,30.23,10.0,Calm,Calm,-,N/A,,Clear,0,2013-09-17 02:04:00
10:24 PM,58.6,54.7,87,30.24,10.0,Calm,Calm,-,N/A,,Clear,0,2013-09-17 02:24:00
10:44 PM,57.7,54.5,89,30.24,10.0,Calm,Calm,-,N/A,,Clear,0,2013-09-17 02:44:00
11:04 PM,59.4,55.0,86,30.25,10.0,Calm,Calm,-,N/A,,Clear,0,2013-09-17 03:04:00
11:24 PM,59.2,54.1,83,30.25,10.0,Calm,Calm,-,N/A,,Clear,0,2013-09-17 03:24:00
11:44 PM,59.0,53.6,82,30.25,10.0,Calm,Calm,-,N/A,,Clear,0,2013-09-17 03:44:00